Location: Les Coudrans
(46.1056°N, 1.1158°W)
Time: 15:37:36
(UTC+00:00)

MetOp-A - Pass Details

Date: 03 March 2021
Orbit: 819 x 821 km, 98.5° (Epoch: 15 April)

Event Time Altitude Azimuth Distance (km) Brightness Sun altitude
Exits shadow 19:27:03 - 156° (SSE) 2,750 6.6 -16.9°
Reaches altitude 10° 19:27:55 10° 155° (SSE) 2,413 6.3 -17.1°
Maximum altitude 19:33:13 71° 73° (ENE) 872 4.0 -18.0°
Drops below altitude 10° 19:38:34 10° 350° (N) 2,430 6.8 -18.9°
Sets 19:40:56 0° 349° (NNW) 3,367 7.6 -19.3°
